GFSFLT2_sfc_dewp_276.txt.gz
Dewpoint
67 68 70 70 69 69 69 70 70 70 71 70 70 70 70 70 69 69 69 68 67 66 65 64 62 62 64 65 66 66 59 56
68 68 68 68 68 69 69 69 69 70 70 69 69 69 69 69 69 69 68 67 66 66 65 64 64 64 64 65 66 66 57 53
69 69 68 69 68 68 69 70 69 69 69 69 67 64 65 64 67 69 69 68 67 66 66 66 65 65 65 65 65 50 50 49
68 68 68 69 65 68 68 67 66 66 66 67 65 66 65 62 65 67 68 68 68 68 67 67 65 53 54 62 55 53 53 50
66 67 68 68 67 66 64 65 66 66 67 67 67 65 65 62 60 61 64 66 60 62 61 59 56 59 55 57 56 57 51 49
65 65 67 67 67 66 65 64 65 64 65 67 67 62 65 64 61 62 63 62 64 64 62 65 66 65 65 64 64 63 59 58
63 65 67 67 67 65 65 66 66 65 65 65 65 66 67 66 67 65 66 65 64 63 62 63 64 64 65 65 65 65 64 62
64 66 67 66 66 66 65 64 63 62 61 61 62 62 64 64 65 64 63 64 65 65 65 65 65 64 64 65 65 65 64 65
63 64 63 61 60 61 60 58 59 58 57 58 58 60 63 64 62 62 62 63 65 65 65 65 65 64 64 64 64 64 62 62
60 58 59 58 58 56 55 55 54 52 51 53 53 52 56 56 56 58 60 60 60 60 61 62 62 63 64 64 63 63 64 64
54 54 53 53 52 52 50 50 47 46 47 48 50 51 51 53 53 54 55 54 54 53 55 58 60 58 57 58 60 61 62 61
49 49 49 49 48 47 49 49 48 45 43 44 47 46 48 47 47 49 48 47 46 48 51 52 54 51 47 49 54 54 55 58
45 46 46 46 44 44 42 41 42 41 41 44 44 44 45 45 42 44 44 44 45 46 45 46 45 47 44 41 43 49 54 59
45 44 43 42 40 40 40 40 40 39 40 42 42 43 43 42 43 42 43 40 44 44 45 40 39 45 44 41 37 37 49 40
45 45 43 42 42 41 40 39 37 35 36 37 39 41 42 43 43 43 43 42 41 43 44 44 39 42 46 42 37 35 38 40
38 40 40 40 39 38 38 33 33 35 35 37 38 41 41 42 43 44 44 43 44 43 43 44 44 42 42 39 44 43 37 39
37 37 37 38 39 38 35 35 34 34 35 38 40 40 41 41 43 44 44 42 45 46 45 45 42 42 41 40 41 39 40 38
37 36 35 37 37 38 38 37 34 33 35 35 35 37 38 41 41 43 44 43 44 44 45 44 43 42 41 40 39 38 38 37
35 34 34 35 36 37 37 38 38 37 35 35 35 36 37 41 42 42 42 44 43 43 43 42 42 42 42 40 39 39 39 38
35 34 35 35 35 36 37 35 33 34 36 35 36 36 38 41 41 41 42 41 41 42 40 40 42 41 42 41 38 38 38 38

GFSFLT2_sfc_dewp_279.txt.gz
Dewpoint
67 67 69 70 70 70 70 70 70 70 70 70 70 70 70 69 69 69 68 67 65 65 64 63 62 62 63 64 65 66 59 55
69 69 67 67 68 70 70 70 70 70 69 69 69 69 69 69 69 69 67 67 66 65 65 64 64 65 65 65 65 65 56 52
69 68 68 69 69 67 69 70 70 70 69 69 67 65 64 65 68 69 68 67 67 66 66 66 66 65 65 65 65 49 47 46
67 69 68 68 65 67 69 65 66 66 64 65 61 63 62 58 64 68 68 68 68 68 67 67 65 54 55 64 58 51 51 48
66 67 68 65 61 62 60 61 62 64 64 64 65 62 63 60 59 62 64 67 60 64 63 62 57 57 54 56 56 57 53 51
63 65 67 68 64 61 60 59 60 60 62 65 64 61 61 61 57 59 60 58 60 60 58 60 62 62 62 62 62 60 57 56
61 62 67 67 66 61 62 65 65 65 63 65 65 65 66 62 61 60 60 61 60 61 60 59 60 61 61 61 61 62 61 60
64 63 67 66 68 68 67 66 66 63 62 62 63 63 66 63 63 62 62 63 64 63 63 63 61 61 61 62 62 61 61 62
66 65 66 66 65 64 63 62 62 60 59 60 60 60 63 64 62 63 63 63 64 63 64 64 64 64 65 64 65 65 64 64
61 61 62 61 61 60 59 59 58 56 55 56 58 57 60 60 59 59 59 60 58 59 58 61 62 63 63 61 61 62 63 64
57 58 58 58 57 57 55 54 52 49 49 51 52 52 53 55 54 54 54 52 52 52 53 55 54 55 51 49 51 53 55 54
53 52 51 51 51 50 49 49 49 48 47 48 49 47 49 49 48 50 48 46 45 46 48 47 47 46 42 40 45 43 46 56
50 49 48 48 49 45 46 47 46 47 45 45 46 46 45 47 43 44 44 44 45 46 45 43 40 45 42 39 40 46 51 44
48 47 47 47 47 48 47 44 44 43 43 43 43 44 44 43 45 43 44 41 46 46 46 42 40 44 42 40 35 38 41 42
47 45 44 45 45 44 43 44 41 38 38 38 40 42 43 44 44 45 45 44 43 45 46 46 42 42 45 41 37 35 39 42
51 48 46 45 46 44 43 39 36 37 37 39 39 42 42 43 45 45 46 45 46 45 45 45 45 42 42 40 44 42 38 38
45 44 42 42 43 42 39 38 37 36 38 40 42 42 42 42 44 45 45 45 46 47 46 46 43 42 41 41 42 40 41 38
40 40 39 40 39 39 40 39 36 35 36 36 37 38 40 43 43 45 46 45 45 45 45 45 45 44 43 41 39 38 38 37
38 36 36 38 39 39 40 39 40 40 37 36 37 37 39 43 43 44 43 44 44 44 44 43 44 43 43 40 40 39 39 38
34 34 35 36 37 38 39 38 35 35 36 36 37 38 40 43 43 43 42 42 42 43 41 41 43 42 43 41 38 38 38 37

GFSFLT2_sfc_dewp_282.txt.gz
Dewpoint
67 68 70 70 70 70 70 70 71 71 70 70 70 70 70 70 70 69 68 67 67 67 66 65 65 65 64 64 63 64 62 56
68 68 67 68 68 69 69 69 70 70 69 69 69 70 70 70 69 69 68 68 67 67 66 65 65 65 64 64 64 64 59 53
69 68 68 69 67 68 69 69 69 69 68 68 68 67 67 67 68 69 68 68 67 67 66 66 65 65 65 65 65 58 50 52
69 70 69 69 65 67 68 66 67 68 67 67 67 66 62 63 66 68 68 68 68 67 67 66 65 60 56 64 62 59 55 52
68 69 70 68 64 68 67 67 68 67 66 66 67 66 65 62 64 63 66 67 65 65 65 64 62 61 61 61 61 60 58 58
67 66 69 71 67 64 64 64 65 65 67 68 68 66 65 64 63 64 65 65 65 64 63 63 63 62 64 63 63 63 61 61
63 67 69 69 69 65 67 66 67 66 66 66 67 67 67 67 64 65 64 65 65 64 64 64 63 63 63 63 63 63 63 63
63 66 68 67 69 69 67 68 67 64 63 62 62 64 67 65 65 64 64 65 65 65 65 65 65 64 64 65 64 64 62 62
66 67 68 67 67 66 65 65 64 62 61 62 62 62 64 64 63 63 62 63 62 62 61 61 63 64 64 64 63 62 65 65
63 63 64 64 64 63 61 61 59 58 58 56 57 57 60 61 59 58 59 60 55 55 57 58 58 60 57 56 55 56 57 61
61 61 60 59 60 58 57 58 55 53 54 53 53 53 54 56 53 55 55 52 50 50 51 52 50 50 44 44 47 52 49 50
57 57 56 56 53 52 52 51 50 51 50 50 51 49 51 54 51 51 50 47 47 48 49 49 49 48 45 43 43 45 48 47
52 52 51 51 51 51 51 50 50 46 47 50 47 49 49 50 49 47 49 47 49 48 48 47 47 47 45 43 46 45 44 45
50 49 49 49 49 49 49 48 49 46 46 47 47 48 49 46 49 48 48 48 48 49 49 46 47 47 42 44 41 45 41 45
50 49 49 49 47 48 47 47 47 44 44 44 45 47 47 49 49 49 49 48 48 48 48 47 46 46 46 44 41 39 41 44
49 47 47 47 49 47 45 42 42 43 42 44 44 46 46 47 48 49 49 48 48 46 47 47 46 43 45 44 46 45 41 39
51 49 48 48 48 50 50 43 42 43 44 45 46 46 46 46 48 49 48 48 48 48 47 46 46 44 43 42 42 42 40 39
51 49 46 47 47 48 48 46 42 41 43 43 43 44 45 47 47 48 48 47 47 46 46 46 46 44 43 42 41 39 38 38
45 43 42 44 46 46 46 46 46 45 44 43 42 43 44 46 46 46 45 46 46 45 45 45 45 42 41 40 40 38 38 37
41 39 40 42 44 44 45 44 42 42 43 43 42 43 44 46 46 45 44 45 45 44 44 43 43 43 42 40 39 38 38 38

GFSFLT2_sfc_dewp_285.txt.gz
Dewpoint
69 70 70 70 69 70 70 70 70 70 70 70 70 69 70 70 69 68 67 67 67 67 66 65 64 64 64 64 64 64 62 56
67 68 68 68 68 69 69 69 69 69 69 69 69 69 69 69 69 68 68 67 66 65 65 64 64 64 65 64 64 64 58 53
66 67 67 67 67 68 69 69 68 68 68 68 67 67 68 68 67 67 67 66 66 66 65 65 65 65 65 65 65 61 58 54
66 67 67 67 66 67 67 67 68 67 66 66 66 66 66 67 67 67 67 67 66 66 66 65 65 62 59 62 62 59 58 56
67 67 68 67 64 66 67 66 66 67 67 64 65 64 60 63 65 65 66 67 65 65 65 65 64 61 59 58 58 57 59 60
67 66 67 68 67 67 68 67 67 66 65 65 65 67 65 62 62 63 63 65 64 64 63 63 62 62 61 62 61 61 61 61
66 66 67 67 67 67 67 66 64 63 62 61 61 63 65 64 65 64 64 65 65 64 64 64 64 64 64 64 64 64 63 64
65 66 67 67 67 65 65 63 62 60 60 60 60 61 62 62 62 61 60 62 59 59 59 59 62 63 63 62 61 63 64 66
65 65 67 65 63 62 62 59 58 58 57 54 56 57 58 60 57 56 55 54 51 52 51 54 54 54 50 50 48 49 54 62
63 63 61 61 60 59 54 53 52 53 52 52 52 52 56 54 52 52 53 48 48 48 49 50 49 48 45 44 44 47 50 44
60 59 59 58 57 55 54 53 52 52 51 50 49 50 52 50 48 50 47 47 47 47 47 47 47 45 43 45 44 43 46 42
57 56 54 52 51 50 50 49 48 48 47 48 48 47 49 47 46 48 47 47 47 46 45 46 46 45 44 41 43 45 44 44
54 53 52 51 51 50 49 48 46 46 46 46 46 47 47 48 46 47 47 46 47 47 47 45 45 43 42 42 43 41 44 43
51 51 50 50 50 49 49 47 47 44 45 45 46 46 47 46 47 47 47 46 46 46 47 45 45 46 42 42 40 41 42 42
50 50 50 49 49 49 47 44 43 43 42 43 45 46 47 47 47 47 47 47 46 45 46 45 43 44 43 43 38 37 40 43
49 49 47 47 46 44 42 41 41 41 42 43 44 45 46 47 47 47 47 47 45 45 45 45 44 42 43 42 42 40 38 37
48 47 46 45 46 44 43 42 41 42 43 42 43 44 45 46 46 46 46 46 46 45 44 45 44 42 41 41 40 40 38 37
47 45 46 46 47 47 41 39 40 40 41 42 43 43 45 45 45 44 44 45 44 44 44 43 41 40 40 39 38 37 36 36
47 46 45 45 44 43 41 39 39 40 41 41 42 43 43 43 43 43 43 44 43 44 42 42 41 40 39 38 38 38 38 36
43 42 41 42 41 41 42 41 41 41 40 42 43 43 43 43 42 42 42 43 42 43 42 41 40 39 37 37 37 37 38 36

GFSFLT2_sfc_dewp_288.txt.gz
Dewpoint
69 69 70 70 69 69 69 69 70 70 69 69 69 69 69 68 68 68 68 67 67 66 66 65 64 64 64 64 64 65 61 55
68 68 68 68 68 68 68 68 68 68 69 69 68 68 69 68 67 67 67 66 66 65 65 64 64 64 65 64 64 64 57 55
67 67 67 67 67 68 68 69 68 68 68 68 67 68 68 67 67 67 66 65 65 65 65 65 65 64 65 65 65 60 56 56
66 66 66 66 66 67 66 67 67 66 66 66 66 65 66 66 66 67 66 66 66 66 66 66 65 62 61 61 59 59 57 57
65 66 66 65 65 65 65 66 65 66 66 65 65 65 66 66 65 65 64 66 64 64 63 62 63 62 60 60 58 57 57 60
66 66 66 66 64 65 66 65 66 66 63 63 64 66 63 62 62 62 62 63 64 64 63 63 62 62 62 63 63 62 63 65
66 66 67 67 66 66 67 66 64 61 60 60 61 62 62 64 62 63 63 63 62 60 60 61 61 63 60 58 57 62 64 65
65 66 66 67 66 66 63 61 60 59 58 58 59 59 61 61 58 57 58 56 55 54 54 55 55 55 50 46 47 60 64 57
65 65 66 63 62 61 60 60 58 55 53 53 53 56 57 55 53 53 51 49 49 48 49 49 49 46 45 45 49 47 48 50
65 64 62 60 56 55 54 53 53 52 51 52 51 54 52 50 49 49 47 47 47 47 48 46 45 44 44 45 45 44 41 40
61 60 58 56 54 53 52 52 51 50 49 48 48 51 49 48 48 47 47 46 47 46 46 46 43 43 43 43 45 43 40 39
58 57 55 52 51 50 49 48 48 47 47 47 47 48 47 47 47 47 47 46 46 45 44 45 44 44 43 44 44 43 41 41
55 53 52 52 50 48 47 46 46 46 45 46 47 47 47 46 47 46 47 46 46 46 45 44 44 44 42 42 43 43 41 39
54 53 52 52 51 50 48 45 45 44 45 45 46 47 47 47 47 46 46 45 45 45 44 43 42 44 41 42 40 41 42 39
53 52 51 51 50 48 46 43 43 42 43 44 45 46 47 47 46 46 46 45 44 44 44 43 41 42 42 41 36 35 40 42
53 52 51 51 49 47 43 41 40 41 43 43 44 46 47 47 46 46 45 45 44 44 44 43 42 40 41 39 39 39 37 32
54 52 50 48 46 45 43 41 41 42 43 43 44 45 46 46 45 45 44 45 44 43 42 41 41 40 39 40 38 37 37 35
51 50 47 46 45 44 43 41 41 41 42 42 43 44 44 44 44 44 44 44 43 42 41 40 39 39 38 38 37 36 35 34
49 47 46 45 46 45 41 41 40 40 41 42 43 43 43 42 43 43 43 43 42 41 40 39 38 38 37 37 37 36 36 35
49 48 46 46 46 43 40 40 40 41 42 43 43 42 42 41 42 43 42 42 42 41 40 39 38 37 36 36 36 36 36 35

GFSFLT2_sfc_dewp_294.txt.gz
Dewpoint
68 68 69 69 69 69 68 69 69 69 69 69 68 67 67 69 68 68 67 66 65 65 65 65 66 65 64 64 64 65 55 56
66 67 67 66 66 68 68 68 68 68 68 68 67 67 67 67 66 66 66 65 65 65 65 65 64 64 64 64 63 62 56 57
65 66 65 65 65 67 68 68 68 68 67 67 66 65 64 64 64 65 65 64 64 64 64 64 65 63 64 64 62 59 58 61
64 65 64 64 67 65 64 66 65 65 65 65 65 64 64 65 65 66 65 65 65 65 65 65 63 62 62 63 60 63 65 66
63 63 63 64 64 64 63 64 64 64 63 63 64 64 64 65 65 64 63 64 63 63 63 63 63 62 61 62 65 64 62 61
64 63 62 63 63 63 63 63 63 64 64 63 63 63 63 64 64 62 62 63 63 63 62 60 52 51 54 64 57 57 58 55
63 63 62 62 62 63 63 63 64 62 62 62 63 63 62 62 62 61 59 58 57 56 54 50 48 55 61 53 52 53 52 50
62 63 63 63 62 63 63 63 61 60 60 60 61 61 59 59 57 53 52 52 52 52 49 47 49 56 56 55 49 47 46 46
63 63 64 64 63 63 62 61 58 56 55 57 60 58 56 54 51 50 49 48 49 48 46 47 49 48 45 43 42 42 42 42
64 65 64 62 61 60 58 56 54 52 53 55 55 53 52 50 48 48 48 48 48 46 45 45 47 45 43 43 42 41 40 41
64 63 60 57 56 55 53 52 51 49 50 51 50 50 49 48 47 47 47 47 47 46 45 44 44 42 41 40 39 39 40 38
63 60 56 54 53 50 49 48 47 47 48 48 48 48 48 47 46 46 47 46 44 44 44 45 44 42 38 39 39 38 38 38
60 57 54 53 51 49 47 46 45 45 46 46 47 47 47 46 46 46 47 46 44 44 44 44 43 42 37 36 37 37 36 37
59 57 53 53 53 48 47 45 44 45 46 46 47 47 46 46 46 45 46 45 43 43 43 42 42 43 41 41 39 39 35 36
59 55 53 52 50 46 44 44 43 43 44 45 46 47 47 46 46 45 45 44 43 42 42 42 40 39 40 41 39 37 39 38
59 55 53 52 49 48 46 44 42 42 44 45 46 47 46 46 45 44 44 44 42 42 42 42 40 37 37 36 38 41 38 33
58 56 54 52 49 49 49 47 42 44 44 45 46 46 45 45 45 44 43 42 41 40 40 40 40 40 36 34 32 33 34 31
57 56 54 53 49 47 46 43 42 43 44 44 45 44 44 44 44 43 41 40 39 39 38 38 38 37 37 36 34 28 29 27
57 56 55 53 51 48 45 44 43 44 43 44 44 43 43 43 43 41 40 40 39 38 37 37 36 35 35 35 36 35 35 33
57 56 55 52 51 51 51 48 47 44 43 44 44 43 42 42 42 41 40 40 39 38 37 37 36 36 35 35 34 34 34 34

GFSFLT2_sfc_dewp_300.txt.gz
Dewpoint
67 67 69 70 69 69 69 69 69 69 69 69 70 69 69 69 68 68 67 67 67 66 65 65 65 66 65 64 63 64 52 53
66 66 66 66 67 68 68 69 69 68 67 67 68 68 68 68 67 67 67 66 66 65 65 65 65 65 64 64 64 65 53 53
67 64 64 65 64 66 67 68 68 68 66 66 63 56 58 60 64 66 65 64 65 65 65 64 65 65 64 65 66 55 55 58
65 64 64 64 59 64 63 61 59 59 58 59 55 59 56 55 61 65 64 64 64 65 65 65 65 58 62 64 61 62 62 65
64 64 63 60 59 60 59 61 62 63 63 60 60 58 57 54 55 55 58 63 57 61 61 59 63 61 64 64 63 62 63 64
61 62 62 61 58 57 58 61 62 62 63 66 64 59 60 57 53 57 61 59 63 61 59 63 65 64 64 63 62 61 60 59
60 61 62 62 60 57 59 61 61 62 64 66 63 61 63 61 61 60 62 63 63 60 59 61 61 62 61 61 61 61 60 58
60 60 62 61 60 61 61 62 65 63 63 64 66 63 64 63 63 61 61 62 61 59 61 62 59 58 57 57 57 58 58 59
61 61 62 62 62 61 61 63 63 63 63 67 66 65 67 65 62 61 60 60 60 61 61 60 55 54 54 53 52 53 53 53
60 59 62 63 62 61 59 62 63 63 63 65 65 65 66 64 61 60 59 59 57 58 58 56 53 52 51 48 48 48 48 48
59 61 62 63 63 62 64 66 63 62 62 63 65 63 63 62 60 59 60 57 56 56 56 55 52 49 47 46 46 44 43 40
59 61 62 63 62 63 63 63 63 62 62 62 63 61 61 61 59 59 57 55 53 53 56 54 50 46 41 43 43 42 42 40
59 61 63 62 61 60 61 61 61 61 61 61 61 59 59 59 57 57 55 53 53 54 53 52 47 46 43 41 41 42 41 37
59 61 63 62 60 60 61 61 60 60 59 59 58 58 57 57 56 55 53 51 52 54 53 48 46 45 43 40 37 36 36 36
59 61 62 62 62 62 62 61 59 57 56 55 55 55 55 54 55 53 53 51 50 53 52 49 44 45 46 44 39 36 35 34
62 61 61 62 63 62 60 59 58 57 56 55 53 54 53 53 52 53 53 49 50 50 49 49 46 45 47 45 50 44 37 33
64 63 62 63 64 62 61 62 60 59 56 55 55 54 52 50 51 51 51 48 50 50 50 50 47 44 45 44 47 46 46 38
65 64 62 64 63 63 63 63 61 56 55 55 54 52 51 51 49 50 50 48 49 49 51 51 48 47 45 43 41 41 41 37
64 64 62 63 63 63 63 64 61 59 57 56 56 53 48 49 50 49 47 48 48 48 50 50 50 48 48 44 41 38 37 35
62 63 63 63 63 63 64 64 63 61 60 58 55 53 49 50 48 47 47 46 47 48 46 47 48 48 46 42 37 36 35 33